Weather History for KGPM - December, 2012

Change the Weather History Date:

Tuesday, December 4, 2012

  Actual Average (KDFW) Record (KDFW)
Temperature  
Mean Temperature 61 °F 49 °F  
Max Temperature 71 °F 60 °F 83 °F (1977)
Min Temperature 51 °F 39 °F 22 °F (2006)
Degree Days  
Heating Degree Days 4 16  
Month to date heating degree days 61  
Since 1 July heating degree days 415  
Cooling Degree Days 0 0  
Month to date cooling degree days 0  
Year to date cooling degree days 2752  
Growing Degree Days 11 (Base 50)    
Moisture  
Dew Point 43 °F    
Average Humidity 56    
Maximum Humidity 83    
Minimum Humidity 21    
Precipitation  
Precipitation 0.00 in 0.08 in 1.69 in (1930)
Month to date precipitation 0.33  
Year to date precipitation 33.92  
Snow  
Snow 0.00 in 0.00 in 0.50 in (1902)
Month to date snowfall 0.0  
Since 1 July snowfall T  
Snow Depth -    
Sea Level Pressure  
Sea Level Pressure 30.14 in    
Wind  
Wind Speed 8 mph (WNW)    
Max Wind Speed 18 mph    
Max Gust Speed 25 mph    
Visibility 10 miles    
Events      
T = Trace of Precipitation, MM = Missing Value Source: NWS Daily Summary

Daily Weather History Graph

Daily Weather History Graph

Search for Another Location

Airport or City:

Trip Planner

Search our weather history database for the weather conditions in past years. The results will help you decide how hot, cold, wet, or windy it might be!

Date:

Astronomy

Dec. 04, 2012 Rise Set
Actual Time 7:15 AM CST 5:21 PM CST
Civil Twilight 6:48 AM CST 5:48 PM CST
Nautical Twilight 6:17 AM CST 6:19 PM CST
Astronomical Twilight 5:47 AM CST 6:49 PM CST
Moon 10:58 PM CST (12/4) 11:21 AM CST (12/4)
Length of Visible Light 11h 00m
Length of Day
10h 06m
Waning Gibbous, 69% of the Moon is Illuminated
Dec 4
Waning Gibbous
Dec 6
Last Quarter
Dec 13
New
Dec 19
First Quarter
Dec 28
Full

Hourly Weather History & Observations

Time (CST) Temp. Dew Point Humidity Pressure Visibility Wind Dir Wind Speed Gust Speed Precip Events Conditions
12:15 AM 66.2 °F 59.0 °F 78% 30.01 in 10.0 mi South 8.1 mph - N/A   Clear
12:35 AM 66.2 °F 59.0 °F 78% 30.01 in 10.0 mi SSW 5.8 mph - N/A   Clear
12:55 AM 64.4 °F 59.0 °F 83% 30.04 in 10.0 mi WSW 4.6 mph - N/A   Clear
1:15 AM 64.4 °F 59.0 °F 83% 30.03 in 10.0 mi SSW 6.9 mph - N/A   Clear
1:35 AM 64.4 °F 59.0 °F 83% 30.03 in 10.0 mi SSW 5.8 mph - N/A   Clear
1:55 AM 64.4 °F 59.0 °F 83% 30.02 in 10.0 mi South 8.1 mph - N/A   Clear
2:15 AM 64.4 °F 57.2 °F 77% 30.02 in 10.0 mi South 8.1 mph - N/A   Clear
2:35 AM 62.6 °F 57.2 °F 82% 30.02 in 10.0 mi South 6.9 mph - N/A   Clear
2:55 AM 62.6 °F 57.2 °F 82% 30.02 in 10.0 mi SSW 6.9 mph - N/A   Clear
3:15 AM 62.6 °F 57.2 °F 82% 30.03 in 10.0 mi SSW 8.1 mph - N/A   Clear
3:35 AM 62.6 °F 57.2 °F 82% 30.02 in 10.0 mi SSW 8.1 mph - N/A   Clear
3:55 AM 62.6 °F 55.4 °F 77% 30.03 in 10.0 mi SSW 5.8 mph - N/A   Clear
4:15 AM 62.6 °F 55.4 °F 77% 30.03 in 10.0 mi SSW 6.9 mph - N/A   Clear
4:35 AM 62.6 °F 55.4 °F 77% 30.02 in 10.0 mi South 9.2 mph - N/A   Clear
4:55 AM 60.8 °F 55.4 °F 82% 30.03 in 10.0 mi SW 6.9 mph - N/A   Clear
5:15 AM 60.8 °F 55.4 °F 82% 30.04 in 10.0 mi West 8.1 mph - N/A   Scattered Clouds
5:35 AM 59.0 °F 42.8 °F 55% 30.06 in 10.0 mi WNW 4.6 mph - N/A   Overcast
5:55 AM 59.0 °F 41.0 °F 51% 30.07 in 10.0 mi WNW 6.9 mph - N/A   Overcast
8:50 AM 57.2 °F 42.8 °F 59% 30.17 in 10.0 mi NW 4.6 mph - N/A   Clear
9:50 AM 62.6 °F 44.6 °F 52% 30.20 in 10.0 mi NNW 10.4 mph - N/A   Clear
10:50 AM 64.4 °F 44.6 °F 49% 30.21 in 10.0 mi NNW 11.5 mph 18.4 mph N/A   Clear
11:50 AM 68.0 °F 46.4 °F 46% 30.20 in 10.0 mi NNW 11.5 mph 23.0 mph N/A   Clear
1:50 PM 69.8 °F 42.8 °F 38% 30.17 in 10.0 mi North 18.4 mph 25.3 mph N/A   Clear
3:50 PM 71.6 °F 33.8 °F 25% 30.19 in 10.0 mi North 15.0 mph 19.6 mph N/A   Clear
4:50 PM 69.8 °F 28.4 °F 21% 30.20 in 10.0 mi North 12.7 mph 18.4 mph N/A   Clear
5:50 PM 64.4 °F 28.4 °F 26% 30.22 in 10.0 mi North 6.9 mph - N/A   Clear
8:15 PM 60.8 °F 26.6 °F 27% 30.27 in 10.0 mi NNW 5.8 mph - N/A   Clear
8:35 PM 60.8 °F 26.6 °F 27% 30.27 in 10.0 mi North 4.6 mph - N/A   Clear
8:55 PM 60.8 °F 26.6 °F 27% 30.28 in 10.0 mi North 4.6 mph - N/A   Clear
9:15 PM 59.0 °F 26.6 °F 29% 30.28 in 10.0 mi North 6.9 mph - N/A   Clear
9:35 PM 59.0 °F 26.6 °F 29% 30.28 in 10.0 mi North 9.2 mph - N/A   Clear
9:55 PM 55.4 °F 26.6 °F 33% 30.28 in 10.0 mi North 9.2 mph - N/A   Clear
10:15 PM 53.6 °F 26.6 °F 35% 30.28 in 10.0 mi NNE 6.9 mph - N/A   Clear
10:35 PM 53.6 °F 26.6 °F 35% 30.29 in 10.0 mi NNE 5.8 mph - N/A   Clear
11:15 PM 51.8 °F 26.6 °F 38% 30.29 in 10.0 mi NNE 6.9 mph - N/A   Clear
11:35 PM 51.8 °F 26.6 °F 38% 30.29 in 10.0 mi North 9.2 mph - N/A   Clear
11:55 PM 53.6 °F 26.6 °F 35% 30.29 in 10.0 mi North 8.1 mph - N/A   Clear